FW7213 Weather Reports


Display with metric or nautical units.
time (UTC)temp
F
wind
direction
speed
MPH
gust
MPH
rain 1hr
in
rain 24hr
in
rain mn
in
humidity
%
barometer
mb
20260901160558 88 101 1.0 7.0 0.00 0.00 0.00 69 1019.9
20260901160104 89 110 1.0 5.0 0.00 0.00 0.00 72 1019.8
20260901155601 88 144 0.0 3.0 0.00 0.00 0.00 75 1019.9
20260901155103 87 60 0.0 3.0 0.00 0.00 0.00 75 1019.9
20260901154604 87 113 0.0 2.0 0.00 0.00 0.00 75 1020.0
20260901154058 88 53 0.0 2.0 0.00 0.00 0.00 75 1019.9
20260901153556 87 0 0.0 2.0 0.00 0.00 0.00 74 1019.9
20260901153105 87 81 0.0 2.0 0.00 0.00 0.00 77 1020.0
20260901152555 87 0 0.0 2.0 0.00 0.00 0.00 76 1020.0
20260901152055 86 0 0.0 2.0 0.00 0.00 0.00 74 1020.1
20260901151610 87 76 0.0 1.0 0.00 0.00 0.00 79 1020.0
20260901151058 86 0 0.0 2.0 0.00 0.00 0.00 76 1019.9
20260901150558 86 0 0.0 2.0 0.00 0.00 0.00 76 1020.0
20260901145600 85 0 0.0 1.0 0.00 0.00 0.00 79 1020.0
20260901145100 85 0 0.0 3.0 0.00 0.00 0.00 78 1020.1
20260901144600 85 0 0.0 3.0 0.00 0.00 0.00 78 1020.1
20260901144102 85 0 0.0 2.0 0.00 0.00 0.00 79 1020.0
20260901143558 84 0 0.0 3.0 0.00 0.00 0.00 85 1019.9
20260901143110 84 0 0.0 3.0 0.00 0.00 0.00 81 1019.9
20260901142554 84 97 0.0 1.0 0.00 0.00 0.00 83 1020.0
20260901142058 84 0 0.0 2.0 0.00 0.00 0.00 82 1020.1
20260901141614 84 0 0.0 2.0 0.00 0.00 0.00 83 1020.2
20260901141107 83 122 0.0 2.0 0.00 0.00 0.00 87 1020.2
20260901140558 83 0 0.0 1.0 0.00 0.00 0.00 86 1020.1
20260901140107 82 335 0.0 1.0 0.00 0.00 0.00 86 1020.2
20260901135556 82 0 0.0 1.0 0.00 0.00 0.00 86 1020.1
20260901135100 82 354 0.0 1.0 0.00 0.00 0.00 89 1020.1
20260901134606 82 0 0.0 1.0 0.00 0.00 0.00 87 1020.0
20260901134058 81 0 0.0 1.0 0.00 0.00 0.00 92 1020.0
20260901133558 81 0 0.0 1.0 0.00 0.00 0.00 89 1020.0
20260901133106 81 0 0.0 0.0 0.00 0.00 0.00 93 1020.0
20260901132601 81 0 0.0 0.0 0.00 0.00 0.00 89 1020.0
20260901132059 81 0 0.0 1.0 0.00 0.00 0.00 90 1019.9
20260901131609 81 0 0.0 1.0 0.00 0.00 0.00 91 1020.0
20260901131058 80 0 0.0 1.0 0.00 0.00 0.00 95 1020.0
20260901130558 79 0 0.0 1.0 0.00 0.00 0.00 93 1020.0
20260901130108 78 0 0.0 1.0 0.00 0.00 0.00 97 1020.0
20260901125602 77 0 0.0 1.0 0.00 0.00 0.00 97 1020.0
20260901125055 76 0 0.0 1.0 0.00 0.00 0.00 97 1020.0
20260901124601 76 0 0.0 0.0 0.00 0.00 0.00 97 1019.9
20260901124054 75 0 0.0 0.0 0.00 0.00 0.00 97 1019.9
20260901123559 74 0 0.0 0.0 0.00 0.00 0.00 97 1019.9
20260901123101 74 0 0.0 0.0 0.00 0.00 0.00 97 1019.8
20260901122559 74 0 0.0 0.0 0.00 0.00 0.00 97 1019.7
20260901122058 74 0 0.0 0.0 0.00 0.00 0.00 97 1019.7
20260901121607 73 0 0.0 0.0 0.00 0.00 0.00 97 1019.6
20260901121055 73 0 0.0 0.0 0.00 0.00 0.00 97 1019.5
20260901120558 73 0 0.0 0.0 0.00 0.00 0.00 97 1019.5
20260901120111 73 0 0.0 0.0 0.00 0.00 0.00 97 1019.5
20260901115558 73 0 0.0 0.0 0.00 0.00 0.00 97 1019.4
20260901115103 73 0 0.0 0.0 0.00 0.00 0.00 97 1019.3
20260901114605 73 0 0.0 0.0 0.00 0.00 0.00 97 1019.2
20260901114102 73 0 0.0 0.0 0.00 0.00 0.00 97 1019.1
20260901113602 73 0 0.0 0.0 0.00 0.00 0.00 97 1019.0
20260901113103 73 0 0.0 0.0 0.00 0.00 0.00 97 1019.0
20260901112558 73 0 0.0 0.0 0.00 0.00 0.00 97 1019.1
20260901112101 73 0 0.0 0.0 0.00 0.00 0.00 97 1019.0
20260901111604 73 0 0.0 0.0 0.00 0.00 0.00 97 1018.9
20260901111058 73 0 0.0 0.0 0.00 0.00 0.00 97 1018.8
20260901110558 73 0 0.0 0.0 0.00 0.00 0.00 97 1018.8
20260901110108 73 0 0.0 0.0 0.00 0.00 0.00 97 1018.8
20260901105559 73 0 0.0 0.0 0.00 0.00 0.00 97 1018.8
20260901105058 73 0 0.0 0.0 0.00 0.00 0.00 97 1018.7
20260901104602 73 0 0.0 0.0 0.00 0.00 0.00 97 1018.7
20260901104059 73 0 0.0 0.0 0.00 0.00 0.00 97 1018.7
20260901103600 73 0 0.0 0.0 0.00 0.00 0.00 97 1018.7
20260901103103 73 0 0.0 0.0 0.00 0.00 0.00 97 1018.7
20260901102558 73 0 0.0 0.0 0.00 0.00 0.00 97 1018.7
20260901102059 73 0 0.0 0.0 0.00 0.00 0.00 97 1018.5
20260901101608 73 0 0.0 0.0 0.00 0.00 0.00 97 1018.6
20260901101058 73 0 0.0 0.0 0.00 0.00 0.00 97 1018.5
20260901100558 73 0 0.0 0.0 0.00 0.00 0.00 97 1018.5
20260901100109 73 0 0.0 0.0 0.00 0.00 0.00 97 1018.4
20260901095558 73 0 0.0 0.0 0.00 0.00 0.00 97 1018.5
20260901095058 73 0 0.0 0.0 0.00 0.00 0.00 97 1018.3
20260901094600 73 0 0.0 0.0 0.00 0.00 0.00 97 1018.3
20260901094057 73 0 0.0 0.0 0.00 0.00 0.00 97 1018.5
20260901093558 73 0 0.0 0.0 0.00 0.00 0.00 97 1018.3
20260901093112 73 0 0.0 0.0 0.00 0.00 0.00 97 1018.3
20260901092559 73 0 0.0 0.0 0.00 0.00 0.00 97 1018.4
20260901092058 73 0 0.0 0.0 0.00 0.00 0.00 97 1018.4
20260901091606 73 0 0.0 0.0 0.00 0.00 0.00 97 1018.3
20260901091059 74 0 0.0 0.0 0.00 0.00 0.00 97 1018.3
20260901090558 74 0 0.0 0.0 0.00 0.00 0.00 97 1018.3
20260901085558 74 0 0.0 0.0 0.00 0.00 0.00 97 1018.3
20260901085058 74 0 0.0 0.0 0.00 0.00 0.00 97 1018.2
20260901084626 74 0 0.0 0.0 0.00 0.00 0.00 97 1018.2
20260901084058 74 0 0.0 0.0 0.00 0.00 0.00 97 1018.2
20260901083559 73 0 0.0 0.0 0.00 0.00 0.00 97 1018.2
20260901083107 74 0 0.0 0.0 0.00 0.00 0.00 97 1018.2
20260901082559 74 0 0.0 0.0 0.00 0.00 0.00 97 1018.0
20260901082057 74 0 0.0 0.0 0.00 0.00 0.00 97 1018.1
20260901081602 74 0 0.0 0.0 0.00 0.00 0.00 97 1018.1
20260901081058 74 0 0.0 0.0 0.00 0.00 0.00 97 1018.2
20260901080559 74 0 0.0 0.0 0.00 0.00 0.00 97 1018.2
20260901080155 74 0 0.0 0.0 0.00 0.00 0.00 97 1018.1
20260901075559 74 0 0.0 0.0 0.00 0.00 0.00 97 1018.1
20260901075101 74 0 0.0 0.0 0.00 0.00 0.00 97 1018.2
20260901074633 74 0 0.0 0.0 0.00 0.00 0.00 97 1018.2
20260901074058 74 0 0.0 0.0 0.00 0.00 0.00 97 1018.3
20260901073558 74 0 0.0 0.0 0.00 0.00 0.00 97 1018.3
20260901073105 74 0 0.0 0.0 0.00 0.00 0.00 97 1018.1
20260901072602 74 0 0.0 0.0 0.00 0.00 0.00 97 1018.1
20260901072058 74 0 0.0 0.0 0.00 0.00 0.00 97 1018.1
20260901071606 74 0 0.0 0.0 0.00 0.00 0.00 97 1018.1
20260901071058 74 0 0.0 0.0 0.00 0.00 0.00 97 1018.2
20260901070558 75 0 0.0 0.0 0.00 0.00 0.00 97 1018.1
20260901070104 75 0 0.0 0.0 0.00 0.00 0.00 97 1018.1
20260901065602 75 0 0.0 0.0 0.00 0.00 0.00 97 1018.0
20260901065059 75 0 0.0 0.0 0.00 0.00 0.00 97 1018.2
20260901064601 75 0 0.0 0.0 0.00 0.00 0.00 97 1018.3
20260901064102 75 163 0.0 0.0 0.00 0.00 0.00 97 1018.4
20260901063558 75 0 0.0 0.0 0.00 0.00 0.00 96 1018.4
20260901063104 75 0 0.0 0.0 0.00 0.00 0.00 96 1018.5
20260901062600 75 0 0.0 0.0 0.00 0.00 0.00 96 1018.5
20260901062101 75 0 0.0 0.0 0.00 0.00 0.00 96 1018.5
20260901061608 75 0 0.0 0.0 0.00 0.00 0.00 96 1018.6
20260901061058 75 0 0.0 0.0 0.00 0.00 0.00 95 1018.5
20260901060555 75 0 0.0 0.0 0.00 0.00 0.00 96 1018.5
20260901060106 75 0 0.0 0.0 0.00 0.00 0.00 95 1018.6
20260901055558 75 0 0.0 0.0 0.00 0.00 0.00 95 1018.7
20260901055058 75 0 0.0 0.0 0.00 0.00 0.00 95 1018.7
20260901054600 76 0 0.0 0.0 0.00 0.00 0.00 95 1018.7
20260901054100 76 0 0.0 0.0 0.00 0.00 0.00 95 1018.7
20260901053559 76 0 0.0 0.0 0.00 0.00 0.00 95 1018.7
20260901053106 76 0 0.0 0.0 0.00 0.00 0.00 94 1018.6
20260901052559 76 0 0.0 0.0 0.00 0.00 0.00 94 1018.6
20260901052058 76 0 0.0 0.0 0.00 0.00 0.00 94 1018.7
20260901051614 76 0 0.0 0.0 0.00 0.00 0.00 94 1018.7
20260901051059 76 0 0.0 0.0 0.00 0.00 0.00 93 1018.8
20260901050559 77 0 0.0 0.0 0.00 0.00 0.00 93 1018.8
20260901050104 77 0 0.0 0.0 0.00 0.00 0.00 93 1018.8
20260901045558 77 0 0.0 0.0 0.00 0.00 0.00 94 1018.9
20260901045058 76 0 0.0 0.0 0.00 0.00 0.00 93 1018.8
20260901044607 76 0 0.0 0.0 0.00 0.00 0.00 93 1018.8
20260901044058 77 148 0.0 0.0 0.00 0.00 0.00 93 1018.8
20260901043558 77 0 0.0 0.0 0.00 0.00 0.00 93 1018.9
20260901043104 77 0 0.0 0.0 0.00 0.00 0.00 92 1018.8
20260901042559 77 0 0.0 0.0 0.00 0.00 0.00 93 1018.8
20260901042058 77 0 0.0 0.0 0.00 0.00 0.00 92 1018.8
20260901041619 77 0 0.0 0.0 0.00 0.00 0.00 92 1018.8
20260901041102 77 0 0.0 0.0 0.00 0.00 0.00 91 1018.7
20260901040558 77 0 0.0 0.0 0.00 0.00 0.00 91 1018.8
20260901040137 78 0 0.0 0.0 0.00 0.00 0.00 91 1018.8
20260901035558 78 0 0.0 0.0 0.00 0.00 0.00 91 1018.8
20260901035058 78 0 0.0 0.0 0.00 0.00 0.00 91 1018.8
20260901034606 78 0 0.0 0.0 0.00 0.00 0.00 90 1018.9
20260901034101 78 0 0.0 0.0 0.00 0.00 0.00 90 1018.9
20260901033558 78 0 0.0 0.0 0.00 0.00 0.00 90 1018.8
20260901033100 78 0 0.0 0.0 0.00 0.00 0.00 89 1018.8
20260901032601 78 0 0.0 0.0 0.00 0.00 0.00 89 1018.9
20260901032100 78 0 0.0 0.0 0.00 0.00 0.00 89 1018.9
20260901031602 79 0 0.0 0.0 0.00 0.00 0.00 89 1018.8
20260901031057 79 0 0.0 0.0 0.00 0.00 0.00 88 1018.9
20260901030559 79 0 0.0 0.0 0.00 0.00 0.00 88 1018.8
20260901030110 79 0 0.0 0.0 0.00 0.00 0.00 85 1018.9
20260901025558 80 0 0.0 0.0 0.00 0.00 0.00 85 1018.9
20260901025100 80 0 0.0 0.0 0.00 0.00 0.00 88 1019.0
20260901024606 80 0 0.0 0.0 0.00 0.00 0.00 85 1018.9
20260901024058 80 0 0.0 0.0 0.00 0.00 0.00 84 1018.9
20260901023558 80 0 0.0 0.0 0.00 0.00 0.00 86 1018.9
20260901023106 79 0 0.0 0.0 0.00 0.00 0.00 86 1019.0
20260901022558 79 0 0.0 0.0 0.00 0.00 0.00 87 1018.8
20260901022058 79 0 0.0 0.0 0.00 0.00 0.00 87 1018.7
20260901021559 79 0 0.0 0.0 0.00 0.00 0.00 87 1018.8
20260901021059 79 0 0.0 0.0 0.00 0.00 0.00 87 1018.8
20260901020557 79 0 0.0 0.0 0.00 0.00 0.00 87 1018.6
20260901020104 80 0 0.0 0.0 0.00 0.00 0.00 87 1018.6
20260901015558 80 0 0.0 0.0 0.00 0.00 0.00 86 1018.7
20260901015117 80 0 0.0 0.0 0.00 0.00 0.00 86 1018.5
20260901014602 80 0 0.0 0.0 0.00 0.00 0.00 85 1018.3
20260901014058 80 0 0.0 0.0 0.00 0.00 0.00 85 1018.3
20260901013556 80 0 0.0 0.0 0.00 0.00 0.00 83 1018.3
20260901013105 80 0 0.0 0.0 0.00 0.00 0.00 86 1018.3
20260901012555 80 0 0.0 0.0 0.00 0.00 0.00 84 1018.2
20260901012059 81 0 0.0 0.0 0.00 0.00 0.00 84 1018.3
20260901011600 81 0 0.0 0.0 0.00 0.00 0.00 84 1018.1
20260901011058 81 0 0.0 0.0 0.00 0.00 0.00 83 1018.1
20260901010558 81 0 0.0 2.0 0.00 0.00 0.00 82 1018.0
20260901010116 81 0 0.0 2.0 0.00 0.00 0.00 81 1017.8
20260901005558 82 0 0.0 2.0 0.00 0.00 0.00 81 1017.7
20260901005057 82 0 0.0 0.0 0.00 0.00 0.00 82 1017.6
20260901004606 83 0 0.0 1.0 0.00 0.00 0.00 81 1017.4
20260901004058 83 0 0.0 1.0 0.00 0.00 0.00 83 1017.4
20260901003558 84 0 0.0 1.0 0.00 0.00 0.00 81 1017.4
20260901003105 84 0 0.0 1.0 0.00 0.00 0.00 79 1017.4
20260901002558 84 0 0.0 1.0 0.00 0.00 0.00 79 1017.4
20260901002058 84 0 0.0 0.0 0.00 0.00 0.00 76 1017.4
20260901001604 85 0 0.0 0.0 0.00 0.00 0.00 77 1017.3
20260901001100 85 0 0.0 0.0 0.00 0.00 0.00 71 1017.2
20260901000558 86 0 0.0 0.0 0.00 0.00 0.00 76 1017.2
20260901000111 87 0 0.0 0.0 0.00 0.00 0.00 72 1017.2
20260831235559 87 0 0.0 1.0 0.00 0.00 0.00 69 1017.3
20260831235059 88 0 0.0 1.0 0.00 0.00 0.00 69 1017.2
20260831234602 88 0 0.0 1.0 0.00 0.00 0.00 64 1017.2
20260831234101 89 0 0.0 1.0 0.00 0.00 0.00 63 1017.2
20260831233558 89 0 0.0 2.0 0.00 0.00 0.00 65 1017.2
20260831233111 90 0 0.0 3.0 0.00 0.00 0.00 65 1017.3
20260831232558 90 77 0.0 3.0 0.00 0.00 0.00 62 1017.2
20260831232058 90 0 1.0 3.0 0.00 0.00 0.00 64 1017.3
20260831231602 90 101 0.0 3.0 0.00 0.00 0.00 61 1017.1
20260831231059 91 94 0.0 4.0 0.00 0.00 0.00 60 1017.2
20260831230600 91 0 1.0 5.0 0.00 0.00 0.00 61 1017.3
20260831230115 92 114 1.0 5.0 0.00 0.00 0.00 60 1017.2
20260831225601 92 117 1.0 5.0 0.00 0.00 0.00 59 1017.2
20260831225058 92 51 1.0 5.0 0.00 0.00 0.00 59 1017.3
20260831224606 92 90 1.0 5.0 0.00 0.00 0.00 60 1017.3
20260831224058 91 115 0.0 5.0 0.00 0.00 0.00 61 1017.3
20260831223559 90 0 0.0 1.0 0.00 0.00 0.00 65 1017.4
20260831223111 90 0 0.0 1.0 0.00 0.00 0.00 62 1017.4
20260831222558 91 0 0.0 3.0 0.00 0.00 0.00 63 1017.4
20260831222057 92 99 0.0 6.0 0.00 0.00 0.00 58 1017.5
20260831221602 94 128 1.0 6.0 0.00 0.00 0.00 60 1017.4
20260831221058 94 84 0.0 3.0 0.00 0.00 0.00 57 1017.4
20260831220558 94 100 0.0 4.0 0.00 0.00 0.00 59 1017.4
20260831220059 94 0 1.0 4.0 0.00 0.00 0.00 60 1017.3
20260831215558 94 142 1.0 4.0 0.00 0.00 0.00 55 1017.4
20260831215058 94 0 0.0 4.0 0.00 0.00 0.00 56 1017.4
20260831214610 94 90 1.0 5.0 0.00 0.00 0.00 58 1017.4
20260831214101 94 86 1.0 5.0 0.00 0.00 0.00 55 1017.4
20260831213557 94 99 0.0 3.0 0.00 0.00 0.00 61 1017.4
20260831213106 94 79 1.0 3.0 0.00 0.00 0.00 57 1017.5
20260831212559 94 147 0.0 3.0 0.00 0.00 0.00 57 1017.5
20260831212059 94 120 0.0 7.0 0.00 0.00 0.00 58 1017.6
20260831211602 93 115 3.0 7.0 0.00 0.00 0.00 57 1017.7
20260831211059 93 156 1.0 3.0 0.00 0.00 0.00 60 1017.7
20260831210601 92 127 1.0 4.0 0.00 0.00 0.00 59 1017.7
20260831210104 91 336 0.0 4.0 0.00 0.00 0.00 64 1017.8
20260831205601 90 98 0.0 4.0 0.00 0.00 0.00 64 1017.8
20260831205055 90 86 0.0 4.0 0.00 0.00 0.00 63 1017.8
20260831204608 90 91 1.0 4.0 0.00 0.00 0.00 62 1017.9
20260831204057 91 98 0.0 4.0 0.00 0.00 0.00 65 1017.9
20260831203556 92 94 0.0 4.0 0.00 0.00 0.00 61 1018.0
20260831203115 92 98 0.0 3.0 0.00 0.00 0.00 62 1017.9
20260831202555 93 25 1.0 3.0 0.00 0.00 0.00 61 1018.0
20260831202058 92 94 0.0 3.0 0.00 0.00 0.00 59 1018.1
20260831201604 93 0 1.0 3.0 0.00 0.00 0.00 61 1018.1
20260831201100 93 8 1.0 5.0 0.00 0.00 0.00 59 1018.2
20260831200558 93 138 2.0 5.0 0.00 0.00 0.00 62 1018.2
20260831200110 92 143 0.0 5.0 0.00 0.00 0.00 59 1018.3
20260831195558 92 142 2.0 7.0 0.00 0.00 0.00 62 1018.4
20260831195058 91 143 1.0 8.0 0.00 0.00 0.00 64 1018.5
20260831194637 91 96 3.0 8.0 0.00 0.00 0.00 60 1018.6
20260831194055 92 94 1.0 6.0 0.00 0.00 0.00 60 1018.6
20260831193555 91 169 0.0 4.0 0.00 0.00 0.00 65 1018.5
20260831193101 90 80 0.0 5.0 0.00 0.00 0.00 67 1018.6
20260831192559 90 113 1.0 6.0 0.00 0.00 0.00 62 1018.7
20260831192059 91 100 1.0 6.0 0.00 0.00 0.00 64 1018.6
20260831191602 92 120 2.0 6.0 0.00 0.00 0.00 60 1018.7
20260831191103 92 163 0.0 5.0 0.00 0.00 0.00 61 1018.8
20260831190559 91 0 1.0 5.0 0.00 0.00 0.00 65 1018.7
20260831190109 91 101 1.0 5.0 0.00 0.00 0.00 67 1018.8
20260831185556 90 155 0.0 2.0 0.00 0.00 0.00 67 1018.9
20260831185056 89 340 0.0 2.0 0.00 0.00 0.00 64 1018.9
20260831184600 90 74 0.0 2.0 0.00 0.00 0.00 63 1018.9
20260831184102 91 99 0.0 2.0 0.00 0.00 0.00 66 1019.1
20260831183558 90 0 0.0 6.0 0.00 0.00 0.00 70 1019.1
20260831183106 89 108 1.0 6.0 0.00 0.00 0.00 67 1019.1
20260831182555 89 86 1.0 5.0 0.00 0.00 0.00 67 1019.1
20260831182100 89 92 0.0 1.0 0.00 0.00 0.00 70 1019.2
20260831181611 90 0 0.0 4.0 0.00 0.00 0.00 66 1019.2
20260831181059 90 351 0.0 4.0 0.00 0.00 0.00 68 1019.3
20260831180556 89 0 1.0 4.0 0.00 0.00 0.00 69 1019.3
20260831180115 89 117 0.0 4.0 0.00 0.00 0.00 69 1019.4
20260831175557 89 0 1.0 4.0 0.00 0.00 0.00 71 1019.4
20260831175059 90 100 1.0 4.0 0.00 0.00 0.00 70 1019.4
20260831174601 89 101 1.0 4.0 0.00 0.00 0.00 68 1019.5
20260831174057 89 91 2.0 4.0 0.00 0.00 0.00 69 1019.5
20260831173558 89 79 0.0 6.0 0.00 0.00 0.00 69 1019.7
20260831173105 88 0 0.0 6.0 0.00 0.00 0.00 72 1019.7
20260831172558 88 0 0.0 2.0 0.00 0.00 0.00 72 1019.7
20260831172058 89 334 1.0 3.0 0.00 0.00 0.00 73 1019.8
20260831171603 89 0 0.0 3.0 0.00 0.00 0.00 74 1019.7
20260831171058 88 86 1.0 3.0 0.00 0.00 0.00 74 1019.7
20260831170559 87 129 0.0 3.0 0.00 0.00 0.00 72 1019.8
20260831170104 88 0 0.0 3.0 0.00 0.00 0.00 73 1019.9
20260831165558 88 85 0.0 2.0 0.00 0.00 0.00 71 1019.9
20260831165058 88 0 0.0 2.0 0.00 0.00 0.00 71 1020.0
20260831164601 89 0 0.0 5.0 0.00 0.00 0.00 71 1020.0
20260831164057 88 150 1.0 5.0 0.00 0.00 0.00 76 1020.1
20260831163555 88 149 1.0 4.0 0.00 0.00 0.00 75 1020.0
20260831163103 87 0 0.0 4.0 0.00 0.00 0.00 72 1020.1
20260831162559 87 144 1.0 3.0 0.00 0.00 0.00 78 1020.1
20260831162100 87 0 0.0 3.0 0.00 0.00 0.00 74 1020.1
20260831161603 86 139 1.0 4.0 0.00 0.00 0.00 78 1020.1
20260831161055 86 0 1.0 4.0 0.00 0.00 0.00 77 1020.1